Probability
0 0 0 0 0 0 0 0 0 0 0 0 0 0 0 0 0 0 0 0 0 0 0 0 0 1 3 4 4 4 4 8 14 18 18 19 18 14 11 9 6 3 1 0
0 0 0 0 0 0 0 0 0 0 0 0 0 0 0 0 0 0 0 0 0 0 0 0 1 2 3 3 4 3 4 8 13 16 17 17 16 13 11 9 7 4 1 0
0 0 0 0 0 0 0 0 0 0 0 0 0 0 0 0 0 0 0 0 0 0 0 0 1 2 3 4 4 3 4 7 12 14 15 14 13 11 9 8 7 4 1 0
0 0 0 0 0 0 0 0 0 0 0 0 0 0 0 0 0 0 0 0 0 0 0 0 1 2 4 5 5 4 4 7 11 13 13 12 9 7 6 5 6 4 1 0
0 0 0 0 0 0 0 0 0 0 0 0 0 0 0 0 0 0 0 0 0 0 0 0 0 2 5 6 7 6 4 5 10 12 10 8 6 4 2 2 3 3 1 0
0 0 0 0 0 0 0 0 0 0 0 0 0 0 0 0 0 0 0 0 0 0 0 0 0 1 4 7 9 8 4 4 8 10 8 5 5 4 2 0 1 1 1 1
0 0 0 0 0 0 0 0 0 0 0 0 0 0 0 0 0 0 0 0 0 0 0 0 0 1 4 6 8 9 5 4 7 8 7 5 5 5 3 1 0 0 0 0
0 0 0 0 0 0 0 0 0 0 0 0 0 0 0 0 0 0 0 0 0 0 0 0 0 1 2 4 6 7 6 6 7 7 6 5 5 4 4 2 1 0 0 0
0 0 0 0 0 0 0 0 0 0 0 0 0 0 0 0 0 0 0 0 0 0 0 0 0 0 1 2 3 5 6 6 7 7 6 5 4 4 4 3 2 0 0 0
0 0 0 0 0 0 0 0 0 0 0 0 0 0 0 0 0 0 0 0 0 0 0 0 0 0 0 0 1 2 3 5 5 6 6 4 5 5 4 3 1 0 0 0
0 0 0 0 0 0 0 0 0 0 0 0 0 0 0 0 0 0 0 0 0 0 0 0 0 0 0 0 0 0 1 3 3 3 4 5 5 7 6 3 1 0 0 0
0 0 0 0 0 0 0 0 0 0 0 0 0 0 0 0 0 0 0 0 0 0 0 0 0 0 0 0 0 0 1 3 2 1 2 4 4 5 5 3 1 0 0 0
0 0 0 0 0 0 0 0 0 0 0 0 0 0 0 0 0 0 0 0 0 0 0 0 0 0 0 0 0 0 0 1 1 0 0 2 2 2 2 2 2 1 1 0
0 0 0 0 0 0 0 0 0 0 0 0 0 0 0 0 0 0 0 0 0 0 0 0 0 0 0 0 0 0 0 0 0 0 0 1 1 1 0 1 2 2 1 0
0 0 0 0 0 0 0 0 0 0 0 0 0 0 0 0 0 0 0 0 0 0 0 0 0 0 0 0 0 0 0 0 0 0 0 0 1 2 1 1 3 2 1 0
0 0 0 0 0 0 0 0 0 0 0 0 0 0 0 0 0 0 0 0 0 0 0 0 0 0 0 0 0 0 0 0 0 0 0 0 1 2 2 3 4 3 1 0
0 0 0 0 0 0 0 0 0 0 0 0 0 0 0 0 0 0 0 0 0 0 0 0 0 0 0 0 0 0 0 0 0 0 0 0 0 1 1 4 6 5 3 1
0 0 0 0 0 0 0 0 0 0 0 0 0 0 0 0 0 0 0 0 0 0 0 0 0 0 0 0 0 0 0 0 0 0 0 0 0 0 1 3 5 5 4 2
0 0 0 0 0 0 0 0 0 0 0 0 0 0 0 0 0 0 0 0 0 0 0 0 0 0 0 0 0 0 0 0 0 0 0 0 0 0 0 1 3 4 4 3
0 0 0 0 0 0 0 0 0 0 0 0 0 0 0 0 0 0 0 0 0 0 0 0 0 0 0 0 0 0 0 0 0 0 0 1 1 1 0 0 1 3 3 3
0 0 0 0 0 0 0 0 0 0 0 0 0 0 0 0 0 0 0 0 0 0 0 0 0 0 0 0 0 0 0 0 0 0 1 2 2 1 0 0 1 1 1 1
0 0 0 0 0 0 0 0 0 0 0 0 0 0 0 0 0 0 0 0 0 0 0 0 0 0 0 0 0 0 0 0 0 0 1 2 1 0 0 0 1 1 0 0
0 0 0 0 0 0 0 0 0 0 0 0 0 0 0 0 0 0 0 0 0 0 0 0 0 0 0 0 0 0 0 0 0 0 1 1 1 0 0 1 2 2 1 0
0 0 0 0 0 0 0 0 0 0 0 0 0 0 0 0 0 0 0 0 0 0 0 0 0 0 0 0 0 0 0 0 0 0 0 0 0 0 0 1 2 2 1 1
0 0 0 0 0 0 0 0 0 0 0 0 0 0 0 0 0 0 0 0 0 0 0 0 0 0 0 0 0 0 0 0 0 0 0 0 0 0 0 1 2 1 1 0
0 0 0 0 0 0 0 0 0 0 0 0 0 0 0 0 0 0 0 0 0 0 0 0 0 0 0 0 0 0 0 0 0 0 0 0 0 0 1 1 1 0 0 0
Wind_Speed
2 5 7 8 9 12 13 16 18 17 14 14 18 21 20 17 16 17 16 16 16 16 14 12 12 12 12 13 14 14 13 14 11 10 11 11 11 11 10 11 14 16 15 16
4 8 9 9 9 11 13 16 18 15 12 12 17 21 19 16 17 16 16 15 15 15 13 11 11 11 12 12 14 15 14 14 14 11 11 10 11 10 10 10 13 16 16 16
8 6 4 7 10 12 13 14 15 16 16 13 14 17 15 13 13 13 14 14 14 13 12 11 11 11 11 12 13 12 15 15 15 14 10 9 9 8 9 12 12 15 17 17
8 6 7 9 11 11 13 10 13 14 12 9 7 12 12 10 11 11 11 11 11 11 11 10 10 11 11 11 11 12 13 15 15 15 13 15 12 11 11 11 12 14 17 17
7 6 8 10 10 10 10 10 12 13 13 13 11 11 11 8 11 11 10 9 9 9 9 9 8 9 10 10 10 10 11 14 15 16 16 16 14 12 10 12 14 15 15 16
11 8 7 8 8 8 9 9 11 10 8 10 11 11 11 7 9 10 8 8 8 8 8 7 6 6 7 7 8 9 11 13 13 15 17 18 18 16 15 15 14 13 12 13
8 7 6 6 7 5 5 6 5 4 6 8 6 9 10 7 7 7 8 7 6 6 6 5 5 5 5 6 7 9 11 13 14 15 16 17 19 18 18 16 15 14 12 13
7 7 4 4 6 6 6 6 6 7 8 8 6 11 7 5 6 6 6 6 5 5 5 5 4 4 5 6 7 9 11 12 14 15 16 15 17 14 13 16 14 14 12 14
6 7 3 5 5 6 5 7 7 8 10 10 9 9 8 6 6 6 6 6 6 6 6 5 4 5 5 5 6 9 10 12 13 15 15 15 15 15 15 16 15 13 12 12
5 9 8 5 5 8 9 6 5 6 7 9 10 11 7 5 5 5 6 6 7 7 7 8 6 5 5 5 6 7 9 11 12 14 14 12 15 15 15 15 16 15 15 14
6 8 7 5 7 8 7 7 7 7 7 8 10 7 3 5 5 7 8 8 8 8 9 8 7 6 5 5 6 6 8 9 10 12 13 13 15 15 15 15 16 16 15 15
5 6 9 11 8 8 9 10 9 8 9 9 10 10 4 5 6 8 9 9 9 9 9 9 8 7 6 5 6 6 7 8 8 9 12 13 14 15 15 15 16 16 16 16
4 5 8 7 5 5 6 8 9 9 9 11 13 12 4 5 8 10 11 11 10 10 10 9 8 7 7 6 6 7 7 7 7 8 10 12 13 15 15 15 15 15 16 15
6 8 11 14 12 8 10 11 11 10 10 13 17 20 17 14 14 14 13 13 11 10 10 10 9 8 8 7 7 7 7 6 6 7 9 11 13 14 15 14 14 15 15 15
6 10 13 18 18 17 18 18 16 17 18 18 20 21 20 18 17 15 13 12 11 11 10 10 10 9 8 8 7 7 7 6 6 7 8 10 11 12 13 13 13 13 14 14
6 9 11 16 16 17 21 21 21 21 21 22 23 24 19 17 15 13 12 12 11 11 11 11 11 10 10 9 8 7 7 6 6 7 8 8 9 10 12 13 13 13 13 13
7 7 8 13 13 14 17 16 17 17 16 17 19 18 15 15 14 13 12 12 11 11 11 12 11 10 10 9 8 8 7 6 7 7 7 7 8 9 10 12 12 13 14 13
10 10 8 9 10 14 9 5 9 13 14 14 15 15 15 15 14 12 11 11 12 12 12 12 11 11 10 9 8 8 8 7 7 7 7 7 8 8 9 10 12 13 12 13
14 11 7 6 10 14 12 8 7 10 12 10 13 14 13 12 12 10 9 10 11 11 11 11 11 11 10 9 8 7 7 7 7 7 7 7 7 7 8 10 11 10 11 12
10 11 9 9 10 11 8 4 3 6 10 6 8 10 11 10 10 8 8 10 11 11 10 10 10 10 9 9 8 8 8 7 8 7 7 7 7 7 8 10 10 8 9 10
6 8 12 13 12 11 8 3 3 7 5 3 5 8 9 10 11 12 12 12 11 11 11 10 10 9 9 8 8 8 8 9 7 7 7 7 7 7 7 8 8 8 8 9
9 8 9 9 11 11 3 4 6 6 6 6 7 8 10 12 13 13 13 13 12 12 12 11 10 10 8 8 8 9 9 8 7 6 6 6 6 5 5 7 8 8 8 9
10 10 6 9 10 6 4 7 7 7 9 10 10 10 11 13 13 14 14 13 12 12 11 10 11 10 9 8 8 9 9 8 7 6 6 5 5 6 6 8 8 8 8 8
8 8 8 10 13 12 11 11 10 10 11 11 12 12 12 13 14 14 13 12 12 12 11 10 11 11 10 9 9 10 9 7 7 7 6 5 5 6 6 6 7 8 8 9
10 7 9 14 14 13 12 10 10 10 10 11 12 11 12 13 14 14 13 13 12 11 11 10 10 11 11 10 10 9 8 7 7 6 6 6 6 6 6 6 6 8 8 9
10 11 11 12 11 10 10 9 9 10 11 12 13 13 12 12 14 14 13 13 12 12 11 11 11 11 11 10 10 9 8 7 7 6 5 5 5 5 5 5 3 3 5 8
Wind_Direction
214 243 255 267 260 271 281 282 280 284 291 284 276 276 278 279 274 265 261 260 256 253 251 245 237 232 228 221 214 207 208 199 191 186 182 180 181 180 180 181 181 182 181 182
238 249 265 277 275 272 269 275 280 287 295 287 282 279 276 270 266 264 263 261 259 256 248 240 235 229 223 219 215 208 208 202 194 192 187 186 182 183 181 180 184 185 185 185
258 286 290 269 271 272 265 268 280 289 302 281 281 278 266 263 262 262 260 259 258 257 251 241 232 228 222 216 214 211 209 204 197 191 187 179 176 176 182 185 185 188 188 188
263 268 267 270 273 275 277 274 279 283 287 283 276 287 280 274 265 260 260 260 258 254 251 243 233 231 223 217 214 213 213 208 199 190 191 185 184 186 190 187 187 187 190 190
263 266 268 269 271 274 279 290 278 274 274 276 259 264 276 268 266 264 261 262 257 251 248 244 236 235 233 221 213 211 213 212 201 194 192 192 194 194 190 187 188 187 190 193
266 268 266 265 275 271 285 285 274 257 256 258 249 250 276 269 273 277 277 276 267 257 252 247 243 243 243 229 218 210 210 212 204 200 194 197 196 194 190 188 187 188 188 192
277 247 238 252 272 254 262 281 276 248 231 254 256 249 261 288 292 289 290 291 289 282 271 254 243 241 249 236 224 217 214 212 205 203 200 200 199 196 195 192 191 189 189 191
290 276 226 231 252 272 252 249 266 282 275 288 266 251 271 289 295 297 296 300 305 303 307 287 266 253 247 243 231 221 223 218 207 205 203 201 202 198 197 197 193 194 194 195
272 279 262 259 259 251 250 240 261 276 278 274 259 262 270 274 282 291 299 308 311 309 311 304 286 269 258 248 245 235 230 222 212 208 204 202 202 203 200 197 197 196 196 195
262 276 274 272 252 231 249 265 246 247 273 269 269 269 278 298 301 307 310 314 313 313 312 307 300 290 275 259 249 243 234 226 219 212 207 204 203 205 203 198 198 198 196 192
240 259 274 256 238 248 228 233 238 250 258 274 279 275 304 313 317 311 311 312 310 314 314 310 302 293 286 280 265 252 240 228 224 217 210 209 205 203 204 201 201 199 196 193
227 255 268 262 262 266 253 245 238 251 254 253 272 274 271 302 311 315 314 316 316 317 314 311 304 296 288 285 277 264 245 236 231 225 214 211 209 203 202 204 201 199 197 195
211 236 273 265 224 216 242 244 248 254 261 256 259 267 262 289 303 310 310 312 313 314 314 312 309 303 298 289 279 270 250 240 235 232 223 212 212 206 203 204 202 198 197 195
246 232 241 264 281 283 266 260 251 245 252 259 257 271 279 286 296 303 305 305 307 310 313 313 312 308 299 290 281 270 260 247 239 233 229 217 213 209 204 203 201 198 195 194
243 253 253 263 272 272 270 268 261 249 249 258 267 273 280 290 293 296 298 301 302 305 310 311 310 309 307 300 291 276 268 256 245 237 233 226 217 212 206 202 199 197 194 194
229 258 269 268 267 269 269 265 262 258 255 256 264 269 277 286 288 291 295 296 296 298 304 306 306 305 303 300 295 286 273 263 249 241 239 233 222 211 206 202 196 192 192 190
227 244 262 271 281 281 265 258 255 254 252 253 259 269 285 288 289 288 292 295 294 295 300 302 302 299 297 294 290 284 276 264 253 244 240 231 222 211 206 200 195 191 191 188
233 237 249 271 275 254 262 280 265 262 260 258 263 273 280 283 288 287 290 294 295 297 297 299 300 298 293 289 286 284 279 261 251 245 238 228 219 210 202 198 197 192 188 188
221 225 237 249 258 269 275 267 261 260 266 265 270 276 281 289 284 275 286 295 295 296 297 297 298 296 291 285 283 281 276 263 252 244 239 228 216 209 201 197 197 192 188 187
211 218 233 238 253 263 280 297 276 257 265 282 281 280 285 292 282 288 310 303 294 296 298 297 299 297 290 285 280 273 270 260 253 248 243 231 218 207 203 198 193 190 187 184
200 216 229 240 252 263 279 288 201 234 278 325 297 291 290 281 279 297 303 299 295 297 299 299 297 293 287 284 276 267 264 256 254 252 246 231 220 208 201 196 189 184 182 176
213 217 222 232 243 253 227 181 219 261 298 295 298 300 296 291 292 295 296 296 296 298 299 299 297 292 290 282 272 267 266 265 256 246 239 226 217 203 192 188 181 177 176 172
221 223 230 226 244 277 226 232 256 277 283 290 295 298 299 296 296 298 297 297 296 297 298 298 294 291 287 279 269 266 269 267 252 238 229 217 210 196 190 185 178 175 176 172
232 230 240 252 258 265 267 266 270 274 278 289 293 295 295 293 295 296 295 294 295 297 296 295 291 286 285 283 276 268 267 257 242 230 220 208 205 196 190 184 181 179 178 175
241 220 238 254 265 275 266 265 274 281 286 291 293 291 290 291 291 292 293 293 293 294 294 292 286 282 282 282 276 273 266 247 233 228 215 203 202 192 189 188 190 186 188 183
228 228 237 254 263 263 274 283 285 284 286 290 294 293 291 288 289 291 290 291 292 292 293 291 287 282 281 277 273 270 263 242 229 220 211 201 192 187 181 173 165 161 169 162